When you browse on this site, cookies collect data to enhance your experience and personalize the content and advertising you see.
Visit our Privacy Policy to learn more. By continuing to use the site, you agree to this use of cookies and data.
  • In Hungary
  • List of Countries
  • For 7 days
  • Water Temperature
  • Satellite Maps
  • Weather Map
  • News
  • Weather Widgets
  • user-avatar
    Login

    Hourly Weather Perelaz

    Today, 24 May, Friday

    Time Temperature Precipitation Wind Pressure Humidity
    00:00 +9°C° 0 mm 3 mps 737 mmHg 92%
    01:00 +9°C° 0 mm 3 mps 737 mmHg 91%
    02:00 +8°C° 0 mm 3 mps 737 mmHg 90%
    03:00 +8°C° 0 mm 3 mps 737 mmHg 88%
    04:00 +7°C° 0 mm 3 mps 737 mmHg 85%
    05:00 +7°C° 0 mm 3 mps 737 mmHg 82%
    06:00 +9°C° 0 mm 3 mps 738 mmHg 77%
    07:00 +10°C° 0 mm 3 mps 738 mmHg 71%
    08:00 +11°C° 0 mm 3 mps 738 mmHg 65%
    09:00 +13°C° 0 mm 3 mps 738 mmHg 61%
    10:00 +16°C° 0 mm 3 mps 738 mmHg 58%
    11:00 +17°C° 0 mm 3 mps 738 mmHg 54%
    12:00 +18°C° 0 mm 3 mps 738 mmHg 53%
    13:00 +19°C° 0 mm 3 mps 738 mmHg 52%
    14:00 +20°C° 0 mm 3 mps 737 mmHg 51%
    15:00 +19°C° 0 mm 3 mps 737 mmHg 53%
    16:00 +19°C° 0 mm 3 mps 737 mmHg 56%
    17:00 +19°C° 0 mm 3 mps 736 mmHg 59%
    18:00 +17°C° 0 mm 3 mps 736 mmHg 68%
    19:00 +16°C° 0 mm 2 mps 736 mmHg 76%
    20:00 +14°C° 0 mm 2 mps 736 mmHg 85%
    21:00 +13°C° 0 mm 2 mps 736 mmHg 88%
    22:00 +13°C° 0 mm 2 mps 736 mmHg 92%
    23:00 +12°C° 0 mm 2 mps 735 mmHg 96%

    Tomorrow, 25 May, Saturday

    Time Temperature Precipitation Wind Pressure Humidity
    00:00 +12°C° 0 mm 2 mps 735 mmHg 95%
    01:00 +13°C° 0 mm 2 mps 735 mmHg 95%
    02:00 +13°C° 0 mm 2 mps 735 mmHg 94%
    03:00 +13°C° 0.1 mm 2 mps 734 mmHg 94%
    04:00 +14°C° 0.1 mm 2 mps 734 mmHg 94%
    05:00 +14°C° 0.1 mm 2 mps 734 mmHg 94%
    06:00 +14°C° 0.1 mm 2 mps 734 mmHg 94%
    07:00 +14°C° 0.1 mm 2 mps 733 mmHg 93%
    08:00 +14°C° 0.1 mm 2 mps 733 mmHg 93%
    09:00 +15°C° 0.3 mm 2 mps 733 mmHg 91%
    10:00 +16°C° 0.3 mm 1 mps 733 mmHg 89%
    11:00 +18°C° 0.3 mm 1 mps 733 mmHg 87%
    12:00 +18°C° 1.2 mm 1 mps 732 mmHg 88%
    13:00 +17°C° 1.2 mm 2 mps 732 mmHg 89%
    14:00 +17°C° 1.2 mm 2 mps 731 mmHg 90%
    15:00 +17°C° 1.8 mm 2 mps 731 mmHg 89%
    16:00 +17°C° 1.8 mm 2 mps 730 mmHg 87%
    17:00 +18°C° 1.8 mm 2 mps 730 mmHg 86%
    18:00 +17°C° 0.3 mm 2 mps 730 mmHg 88%
    19:00 +16°C° 0.3 mm 2 mps 730 mmHg 91%
    20:00 +15°C° 0.3 mm 2 mps 730 mmHg 93%
    21:00 +14°C° 0 mm 2 mps 730 mmHg 94%
    22:00 +13°C° 0 mm 2 mps 730 mmHg 96%
    23:00 +12°C° 0 mm 2 mps 730 mmHg 97%

    Day after tomorrow, 26 May, Sunday

    Time Temperature Precipitation Wind Pressure Humidity
    00:00 +10°C° 0 mm 2 mps 730 mmHg 97%
    01:00 +9°C° 0 mm 2 mps 731 mmHg 97%
    02:00 +8°C° 0 mm 2 mps 731 mmHg 98%
    03:00 +8°C° 0 mm 2 mps 731 mmHg 96%
    04:00 +8°C° 0 mm 2 mps 731 mmHg 95%
    05:00 +8°C° 0 mm 2 mps 731 mmHg 94%
    06:00 +9°C° 0 mm 3 mps 732 mmHg 89%
    07:00 +10°C° 0 mm 3 mps 732 mmHg 85%
    08:00 +11°C° 0 mm 3 mps 732 mmHg 80%
    09:00 +11°C° 0 mm 3 mps 732 mmHg 77%
    10:00 +11°C° 0 mm 3 mps 732 mmHg 74%
    11:00 +12°C° 0 mm 3 mps 732 mmHg 71%
    12:00 +14°C° 0 mm 3 mps 732 mmHg 64%
    13:00 +17°C° 0 mm 3 mps 731 mmHg 56%
    14:00 +19°C° 0 mm 3 mps 731 mmHg 48%
    15:00 +19°C° 0 mm 3 mps 731 mmHg 50%
    16:00 +19°C° 0 mm 3 mps 731 mmHg 51%
    17:00 +19°C° 0 mm 3 mps 731 mmHg 52%
    18:00 +17°C° 0.2 mm 3 mps 731 mmHg 63%
    19:00 +15°C° 0.2 mm 2 mps 730 mmHg 74%
    20:00 +13°C° 0.2 mm 2 mps 730 mmHg 84%
    21:00 +13°C° 0.2 mm 2 mps 730 mmHg 87%
    22:00 +11°C° 0.2 mm 3 mps 730 mmHg 89%
    23:00 +11°C° 0.2 mm 3 mps 730 mmHg 92%

    27 May, Monday

    Time Temperature Precipitation Wind Pressure Humidity
    00:00 +10°C° 0.7 mm 3 mps 730 mmHg 93%
    01:00 +9°C° 0.7 mm 3 mps 730 mmHg 93%
    02:00 +7°C° 0.7 mm 4 mps 730 mmHg 94%
    03:00 +7°C° 0.1 mm 4 mps 731 mmHg 93%
    04:00 +6°C° 0.1 mm 4 mps 731 mmHg 92%
    05:00 +6°C° 0.1 mm 4 mps 732 mmHg 91%
    06:00 +7°C° 0 mm 5 mps 732 mmHg 87%
    07:00 +7°C° 0 mm 5 mps 732 mmHg 83%
    08:00 +8°C° 0 mm 5 mps 733 mmHg 79%
    09:00 +9°C° 0 mm 5 mps 733 mmHg 73%
    10:00 +10°C° 0 mm 5 mps 733 mmHg 68%
    11:00 +10°C° 0 mm 5 mps 734 mmHg 63%
    12:00 +12°C° 0 mm 5 mps 734 mmHg 60%
    13:00 +13°C° 0 mm 5 mps 734 mmHg 58%
    14:00 +14°C° 0 mm 5 mps 735 mmHg 56%
    15:00 +15°C° 0 mm 4 mps 735 mmHg 54%
    16:00 +17°C° 0 mm 4 mps 735 mmHg 53%
    17:00 +18°C° 0 mm 4 mps 735 mmHg 52%
    18:00 +16°C° 0 mm 3 mps 735 mmHg 62%
    19:00 +14°C° 0 mm 3 mps 735 mmHg 72%
    20:00 +14°C° 0 mm 2 mps 734 mmHg 83%
    21:00 +13°C° 0.4 mm 3 mps 734 mmHg 85%
    22:00 +13°C° 0.4 mm 4 mps 734 mmHg 87%
    23:00 +13°C° 0.4 mm 4 mps 734 mmHg 90%

    28 May, Tuesday

    Time Temperature Precipitation Wind Pressure Humidity
    00:00 +13°C° 0.5 mm 4 mps 734 mmHg 91%
    01:00 +13°C° 0.5 mm 4 mps 734 mmHg 93%
    02:00 +13°C° 0.5 mm 4 mps 734 mmHg 95%
    03:00 +13°C° 0.3 mm 4 mps 734 mmHg 95%
    04:00 +13°C° 0.3 mm 3 mps 734 mmHg 95%
    05:00 +13°C° 0.3 mm 3 mps 734 mmHg 96%
    06:00 +14°C° 0.1 mm 3 mps 735 mmHg 94%
    07:00 +16°C° 0.1 mm 3 mps 735 mmHg 93%
    08:00 +17°C° 0.1 mm 3 mps 736 mmHg 91%
    09:00 +18°C° 0.1 mm 3 mps 736 mmHg 85%
    10:00 +19°C° 0.1 mm 3 mps 736 mmHg 80%
    11:00 +20°C° 0.1 mm 3 mps 736 mmHg 74%
    12:00 +21°C° 0.1 mm 3 mps 736 mmHg 70%
    13:00 +22°C° 0.1 mm 3 mps 736 mmHg 65%
    14:00 +24°C° 0.1 mm 3 mps 736 mmHg 61%
    15:00 +23°C° 0.5 mm 2 mps 736 mmHg 69%
    16:00 +21°C° 0.5 mm 2 mps 736 mmHg 78%
    17:00 +20°C° 0.5 mm 1 mps 736 mmHg 86%
    18:00 +19°C° 1.2 mm 1 mps 736 mmHg 90%
    19:00 +18°C° 1.2 mm 1 mps 736 mmHg 94%
    20:00 +16°C° 1.2 mm 1 mps 736 mmHg 97%
    21:00 +16°C° 0.9 mm 1 mps 736 mmHg 98%
    22:00 +16°C° 0.9 mm 1 mps 736 mmHg 98%
    23:00 +15°C° 0.9 mm 0 mps 736 mmHg 98%

    29 May, Wednesday

    Time Temperature Precipitation Wind Pressure Humidity
    00:00 +15°C° 0 mm 0 mps 736 mmHg 98%
    01:00 +15°C° 0 mm 0 mps 736 mmHg 98%
    02:00 +15°C° 0 mm 0 mps 736 mmHg 98%
    03:00 +16°C° 0.1 mm 1 mps 736 mmHg 98%
    04:00 +16°C° 0.1 mm 1 mps 736 mmHg 98%
    05:00 +18°C° 0.1 mm 1 mps 736 mmHg 98%
    06:00 +17°C° 0 mm 2 mps 736 mmHg 96%
    07:00 +18°C° 0 mm 2 mps 736 mmHg 94%
    08:00 +19°C° 0 mm 3 mps 736 mmHg 92%
    09:00 +21°C° 0 mm 4 mps 736 mmHg 79%
    10:00 +23°C° 0 mm 4 mps 735 mmHg 66%
    11:00 +27°C° 0 mm 5 mps 735 mmHg 52%
    12:00 +27°C° 0 mm 5 mps 735 mmHg 51%
    13:00 +28°C° 0 mm 6 mps 734 mmHg 49%
    14:00 +28°C° 0 mm 6 mps 734 mmHg 48%
    15:00 +27°C° 0.4 mm 6 mps 734 mmHg 55%
    16:00 +26°C° 0.4 mm 5 mps 734 mmHg 62%
    17:00 +26°C° 0.4 mm 5 mps 733 mmHg 69%
    18:00 +23°C° 2.3 mm 4 mps 733 mmHg 76%
    19:00 +21°C° 2.3 mm 4 mps 734 mmHg 83%
    20:00 +20°C° 2.3 mm 3 mps 734 mmHg 90%
    21:00 +19°C° 0.6 mm 2 mps 734 mmHg 92%
    22:00 +18°C° 0.6 mm 2 mps 734 mmHg 94%
    23:00 +17°C° 0.6 mm 2 mps 734 mmHg 96%
    Show more